Banff, Alberta

10:21 AM MST on December 15, 2017 (GMT -0700)
Banff

Weather History for CWZG - July, 2013

Change the Weather History Date:

Saturday, July 20, 2013

  Actual Average Record
Temperature  
Mean Temperature 60 °F -  
Max Temperature 79 °F - - ()
Min Temperature 42 °F - - ()
Degree Days  
Heating Degree Days 4    
Growing Degree Days 10 (Base 50)    
Moisture  
Dew Point 42 °F    
Average Humidity 54    
Maximum Humidity 93    
Minimum Humidity 23    
Precipitation  
Precipitation 0.00 in - - ()
Sea Level Pressure  
Sea Level Pressure 29.93 in    
Wind  
Wind Speed 4 mph ()    
Max Wind Speed 12 mph    
Max Gust Speed 23 mph    
T = Trace of Precipitation, MM = Missing Value Source: Averaged Metar Reports

Daily Weather History Graph

Daily Weather History Graph

Search for Another Location

Airport or City:

Trip Planner

Search our weather history database for the weather conditions in past years. The results will help you decide how hot, cold, wet, or windy it might be!

Date:

Astronomy

Jul. 20, 2013 Rise Set
Actual Time 5:50 AM MDT 9:45 PM MDT
Civil Twilight 5:07 AM MDT 10:28 PM MDT
Nautical Twilight 4:07 AM MDT 11:27 PM MDT
Astronomical Twilight 2:12 AM MDT 1:14 AM MDT
Moon 7:51 PM MDT (7/20) 3:36 AM MDT (7/20)
Length of Visible Light 17h 20m
Length of Day
15h 54m
Waxing Gibbous, 94% of the Moon is Illuminated
Jul 20
Waxing Gibbous
Jul 22
Full
Jul 29
Last Quarter
Aug 6
New
Aug 14
First Quarter

Hourly Weather History & Observations

Time (MDT) Temp. Windchill Dew Point Humidity Pressure Visibility Wind Dir Wind Speed Gust Speed Precip Events Conditions
12:00 AM 56.3 °F - 46.0 °F 68% 30.08 in - SSW 4.6 mph - N/A   Unknown
1:00 AM 51.6 °F - 44.6 °F 77% 30.08 in - West 2.3 mph - N/A   Unknown
2:00 AM 46.9 °F - 42.8 °F 86% 30.09 in - NE 1.2 mph - N/A   Unknown
3:00 AM 44.4 °F - 41.4 °F 89% 30.09 in - Calm Calm - N/A   Unknown
4:00 AM 45.9 °F - 44.1 °F 93% 30.10 in - West 2.3 mph - N/A   Unknown
5:00 AM 45.3 °F - 43.0 °F 92% 30.08 in - WNW 1.2 mph - N/A   Unknown
6:00 AM 42.6 °F - 40.5 °F 92% 30.07 in - West 1.2 mph - N/A   Unknown
7:00 AM 45.0 °F 42.6 °F 42.8 °F 92% 30.06 in - SW 4.6 mph - N/A   Unknown
8:00 AM 48.7 °F - 43.2 °F 81% 30.05 in - SW 8.1 mph - N/A   Unknown
9:00 AM 53.2 °F - 44.1 °F 71% 30.03 in - SW 8.1 mph - N/A   Unknown
10:00 AM 60.4 °F - 45.9 °F 59% 29.98 in - WSW 8.1 mph - N/A   Unknown
11:00 AM 65.8 °F - 46.6 °F 50% 29.94 in - SW 8.1 mph - N/A   Unknown
12:00 PM 72.0 °F - 43.2 °F 35% 29.91 in - WSW 8.1 mph - N/A   Unknown
1:00 PM 76.5 °F - 41.5 °F 29% 29.88 in - SW 8.1 mph - N/A   Unknown
2:00 PM 75.2 °F - 41.0 °F 29% 29.88 in - West 5.8 mph - N/A   Unknown
3:00 PM 75.6 °F - 38.5 °F 26% 29.86 in - SW 6.9 mph - N/A   Unknown
4:00 PM 78.4 °F - 38.1 °F 23% 29.84 in - WSW 10.4 mph 21.9 mph N/A   Unknown
5:00 PM 78.4 °F - 39.4 °F 25% 29.83 in - SW 11.5 mph 23.0 mph N/A   Unknown
6:00 PM 78.1 °F - 39.7 °F 25% 29.80 in - WSW 6.9 mph - N/A   Unknown
7:00 PM 79.3 °F - 39.2 °F 24% 29.78 in - WSW 6.9 mph - N/A   Unknown
8:00 PM 75.4 °F - 40.5 °F 28% 29.77 in - West 4.6 mph - N/A   Unknown
9:00 PM 73.2 °F - 39.9 °F 30% 29.75 in - WSW 3.5 mph - N/A   Unknown
10:00 PM 69.8 °F - 40.5 °F 34% 29.75 in - WSW 3.5 mph - N/A   Unknown
11:00 PM 67.8 °F - 41.0 °F 38% 29.74 in - WSW 2.3 mph - N/A   Unknown